Time,TemperatureF,DewpointF,PressureIn,WindDirection,WindDirectionDegrees,WindSpeedMPH,WindSpeedGustMPH,Humidity,HourlyPrecipIn,Conditions,Clouds,dailyrainin,SoftwareType,DateUTC
2013-04-02 00:03:00,32.0,-99.9,-100.00,North,-999,-999.0,-999.0,-999,0.00,,,0.39,,2013-04-02 04:03:00,
2013-04-02 00:13:00,32.0,-99.9,-100.00,North,-999,-999.0,-999.0,-999,0.00,,,0.39,,2013-04-02 04:13:00,
2013-04-02 00:33:00,32.0,-99.9,-100.00,North,-999,-999.0,-999.0,-999,0.00,,,0.39,,2013-04-02 04:33:00,
2013-04-02 00:43:00,32.0,-99.9,-100.00,North,-999,-999.0,-999.0,-999,0.00,,,0.39,,2013-04-02 04:43:00,
2013-04-02 01:02:00,32.0,-99.9,-100.00,North,-999,-999.0,-999.0,-999,0.00,,,0.39,,2013-04-02 05:02:00,
2013-04-02 01:12:00,32.0,-99.9,-100.00,North,-999,-999.0,-999.0,-999,0.00,,,0.39,,2013-04-02 05:12:00,
2013-04-02 01:23:00,32.0,-99.9,-100.00,North,-999,-999.0,-999.0,-999,0.00,,,0.39,,2013-04-02 05:23:00,
2013-04-02 01:33:00,32.0,-99.9,-100.00,North,-999,-999.0,-999.0,-999,0.00,,,0.39,,2013-04-02 05:33:00,
2013-04-02 01:43:00,32.0,-99.9,-100.00,North,-999,-999.0,-999.0,-999,0.00,,,0.39,,2013-04-02 05:43:00,
2013-04-02 02:03:00,29.0,-99.9,-100.00,North,-999,-999.0,-999.0,-999,0.00,,,0.39,,2013-04-02 06:03:00,
2013-04-02 02:12:00,29.0,-99.9,-100.00,North,-999,-999.0,-999.0,-999,0.00,,,0.39,,2013-04-02 06:12:00,
2013-04-02 02:22:00,29.0,-99.9,-100.00,North,-999,-999.0,-999.0,-999,0.00,,,0.39,,2013-04-02 06:22:00,
2013-04-02 02:32:00,29.0,-99.9,-100.00,North,-999,-999.0,-999.0,-999,0.00,,,0.39,,2013-04-02 06:32:00,
2013-04-02 02:43:00,29.0,-99.9,-100.00,North,-999,-999.0,-999.0,-999,0.00,,,0.39,,2013-04-02 06:43:00,
2013-04-02 03:13:00,29.0,-99.9,-100.00,North,-999,-999.0,-999.0,-999,0.00,,,0.34,,2013-04-02 07:13:00,
2013-04-02 03:23:00,29.0,-99.9,-100.00,North,-999,-999.0,-999.0,-999,0.00,,,0.34,,2013-04-02 07:23:00,
2013-04-02 03:32:00,29.0,-99.9,-100.00,North,-999,-999.0,-999.0,-999,0.00,,,0.34,,2013-04-02 07:32:00,
2013-04-02 03:43:00,29.0,-99.9,-100.00,North,-999,-999.0,-999.0,-999,0.00,,,0.34,,2013-04-02 07:43:00,
2013-04-02 04:02:00,29.0,-99.9,-100.00,North,-999,-999.0,-999.0,-999,0.00,,,0.27,,2013-04-02 08:02:00,
2013-04-02 04:14:00,29.0,-99.9,-100.00,North,-999,-999.0,-999.0,-999,0.00,,,0.27,,2013-04-02 08:14:00,
2013-04-02 04:23:00,29.0,-99.9,-100.00,North,-999,-999.0,-999.0,-999,0.00,,,0.27,,2013-04-02 08:23:00,
2013-04-02 04:33:00,29.0,-99.9,-100.00,North,-999,-999.0,-999.0,-999,0.00,,,0.27,,2013-04-02 08:33:00,
2013-04-02 04:43:00,29.0,-99.9,-100.00,North,-999,-999.0,-999.0,-999,0.00,,,0.27,,2013-04-02 08:43:00,
2013-04-02 05:03:00,28.0,-99.9,-100.00,North,-999,-999.0,-999.0,-999,0.00,,,0.21,,2013-04-02 09:03:00,
2013-04-02 05:13:00,28.0,-99.9,-100.00,North,-999,-999.0,-999.0,-999,0.00,,,0.21,,2013-04-02 09:13:00,
2013-04-02 05:23:00,28.0,-99.9,-100.00,North,-999,-999.0,-999.0,-999,0.00,,,0.21,,2013-04-02 09:23:00,
2013-04-02 05:43:00,28.0,-99.9,-100.00,North,-999,-999.0,-999.0,-999,0.00,,,0.21,,2013-04-02 09:43:00,
2013-04-02 06:04:00,27.0,-99.9,-100.00,North,-999,-999.0,-999.0,-999,0.00,,,0.19,,2013-04-02 10:04:00,
2013-04-02 06:13:00,27.0,-99.9,-100.00,North,-999,-999.0,-999.0,-999,0.00,,,0.19,,2013-04-02 10:13:00,
2013-04-02 06:24:00,27.0,-99.9,-100.00,North,-999,-999.0,-999.0,-999,0.00,,,0.19,,2013-04-02 10:24:00,
2013-04-02 06:33:00,27.0,-99.9,-100.00,North,-999,-999.0,-999.0,-999,0.00,,,0.19,,2013-04-02 10:33:00,
2013-04-02 06:43:00,27.0,-99.9,-100.00,North,-999,-999.0,-999.0,-999,0.00,,,0.19,,2013-04-02 10:43:00,
2013-04-02 07:03:00,26.0,-99.9,-100.00,North,-999,-999.0,-999.0,-999,0.00,,,0.19,,2013-04-02 11:03:00,
2013-04-02 07:12:00,26.0,-99.9,-100.00,North,-999,-999.0,-999.0,-999,0.00,,,0.19,,2013-04-02 11:12:00,
2013-04-02 07:23:00,26.0,-99.9,-100.00,North,-999,-999.0,-999.0,-999,0.00,,,0.19,,2013-04-02 11:23:00,
2013-04-02 07:33:00,26.0,-99.9,-100.00,North,-999,-999.0,-999.0,-999,0.00,,,0.19,,2013-04-02 11:33:00,
2013-04-02 07:43:00,26.0,-99.9,-100.00,North,-999,-999.0,-999.0,-999,0.00,,,0.19,,2013-04-02 11:43:00,
2013-04-02 08:03:00,28.0,-99.9,-100.00,North,-999,-999.0,-999.0,-999,0.00,,,0.17,,2013-04-02 12:03:00,
2013-04-02 08:12:00,28.0,-99.9,-100.00,North,-999,-999.0,-999.0,-999,0.00,,,0.17,,2013-04-02 12:12:00,
2013-04-02 08:23:00,28.0,-99.9,-100.00,North,-999,-999.0,-999.0,-999,0.00,,,0.17,,2013-04-02 12:23:00,
2013-04-02 08:33:00,28.0,-99.9,-100.00,North,-999,-999.0,-999.0,-999,0.00,,,0.17,,2013-04-02 12:33:00,
2013-04-02 08:43:00,28.0,-99.9,-100.00,North,-999,-999.0,-999.0,-999,0.00,,,0.17,,2013-04-02 12:43:00,
2013-04-02 09:02:00,30.0,-99.9,-100.00,North,-999,-999.0,-999.0,-999,0.02,,,0.19,,2013-04-02 13:02:00,
2013-04-02 09:12:00,30.0,-99.9,-100.00,North,-999,-999.0,-999.0,-999,0.02,,,0.19,,2013-04-02 13:12:00,
2013-04-02 09:23:00,30.0,-99.9,-100.00,North,-999,-999.0,-999.0,-999,0.02,,,0.19,,2013-04-02 13:23:00,
2013-04-02 09:33:00,30.0,-99.9,-100.00,North,-999,-999.0,-999.0,-999,0.02,,,0.19,,2013-04-02 13:33:00,
2013-04-02 09:43:00,30.0,-99.9,-100.00,North,-999,-999.0,-999.0,-999,0.02,,,0.19,,2013-04-02 13:43:00,
2013-04-02 10:03:00,31.0,-99.9,-100.00,North,-999,-999.0,-999.0,-999,0.00,,,0.19,,2013-04-02 14:03:00,
2013-04-02 10:23:00,31.0,-99.9,-100.00,North,-999,-999.0,-999.0,-999,0.00,,,0.19,,2013-04-02 14:23:00,
2013-04-02 10:33:00,31.0,-99.9,-100.00,North,-999,-999.0,-999.0,-999,0.00,,,0.19,,2013-04-02 14:33:00,
2013-04-02 10:43:00,31.0,-99.9,-100.00,North,-999,-999.0,-999.0,-999,0.00,,,0.19,,2013-04-02 14:43:00,
2013-04-02 11:12:00,33.0,-99.9,-100.00,North,-999,-999.0,-999.0,-999,0.03,,,0.22,,2013-04-02 15:12:00,
2013-04-02 11:23:00,33.0,-99.9,-100.00,North,-999,-999.0,-999.0,-999,0.03,,,0.22,,2013-04-02 15:23:00,
2013-04-02 11:34:00,33.0,-99.9,-100.00,North,-999,-999.0,-999.0,-999,0.03,,,0.22,,2013-04-02 15:34:00,
2013-04-02 11:44:00,33.0,-99.9,-100.00,North,-999,-999.0,-999.0,-999,0.03,,,0.22,,2013-04-02 15:44:00,
2013-04-02 11:45:00,34.0,-99.9,-100.00,North,-999,-999.0,-999.0,-999,-99.99,,,0.19,,2013-04-02 15:45:00,
2013-04-02 12:05:00,34.0,-99.9,-100.00,North,-999,-999.0,-999.0,-999,-99.99,,,0.19,,2013-04-02 16:05:00,
2013-04-02 12:14:00,34.0,-99.9,-100.00,North,-999,-999.0,-999.0,-999,-99.99,,,0.19,,2013-04-02 16:14:00,
2013-04-02 12:25:00,34.0,-99.9,-100.00,North,-999,-999.0,-999.0,-999,-99.99,,,0.19,,2013-04-02 16:25:00,
2013-04-02 12:40:00,34.0,-99.9,-100.00,North,-999,-999.0,-999.0,-999,-99.99,,,0.19,,2013-04-02 16:40:00,
2013-04-02 13:07:00,34.0,-99.9,-100.00,North,-999,-999.0,-999.0,-999,0.00,,,0.16,,2013-04-02 17:07:00,
2013-04-02 13:14:00,34.0,-99.9,-100.00,North,-999,-999.0,-999.0,-999,0.00,,,0.16,,2013-04-02 17:14:00,
2013-04-02 13:25:00,34.0,-99.9,-100.00,North,-999,-999.0,-999.0,-999,0.00,,,0.16,,2013-04-02 17:25:00,
2013-04-02 13:36:00,34.0,-99.9,-100.00,North,-999,-999.0,-999.0,-999,0.00,,,0.16,,2013-04-02 17:36:00,
2013-04-02 13:44:00,34.0,-99.9,-100.00,North,-999,-999.0,-999.0,-999,0.00,,,0.16,,2013-04-02 17:44:00,
2013-04-02 14:13:00,35.0,-99.9,-100.00,North,-999,-999.0,-999.0,-999,0.03,,,0.19,,2013-04-02 18:13:00,
2013-04-02 14:24:00,35.0,-99.9,-100.00,North,-999,-999.0,-999.0,-999,0.03,,,0.19,,2013-04-02 18:24:00,
2013-04-02 14:35:00,35.0,-99.9,-100.00,North,-999,-999.0,-999.0,-999,0.03,,,0.19,,2013-04-02 18:35:00,
2013-04-02 14:43:00,35.0,-99.9,-100.00,North,-999,-999.0,-999.0,-999,0.03,,,0.19,,2013-04-02 18:43:00,
2013-04-02 14:45:00,37.0,-99.9,-100.00,North,-999,-999.0,-999.0,-999,-99.99,,,0.15,,2013-04-02 18:45:00,
2013-04-02 15:13:00,37.0,-99.9,-100.00,North,-999,-999.0,-999.0,-999,-99.99,,,0.15,,2013-04-02 19:13:00,
2013-04-02 15:23:00,37.0,-99.9,-100.00,North,-999,-999.0,-999.0,-999,-99.99,,,0.15,,2013-04-02 19:23:00,
2013-04-02 15:35:00,37.0,-99.9,-100.00,North,-999,-999.0,-999.0,-999,-99.99,,,0.15,,2013-04-02 19:35:00,
2013-04-02 15:45:00,35.0,-99.9,-100.00,North,-999,-999.0,-999.0,-999,0.02,,,0.17,,2013-04-02 19:45:00,
2013-04-02 16:04:00,35.0,-99.9,-100.00,North,-999,-999.0,-999.0,-999,0.02,,,0.17,,2013-04-02 20:04:00,
2013-04-02 16:14:00,35.0,-99.9,-100.00,North,-999,-999.0,-999.0,-999,0.02,,,0.17,,2013-04-02 20:14:00,
2013-04-02 16:23:00,35.0,-99.9,-100.00,North,-999,-999.0,-999.0,-999,0.02,,,0.17,,2013-04-02 20:23:00,
2013-04-02 16:34:00,35.0,-99.9,-100.00,North,-999,-999.0,-999.0,-999,0.02,,,0.17,,2013-04-02 20:34:00,
2013-04-02 17:13:00,39.0,-99.9,-100.00,North,-999,-999.0,-999.0,-999,0.00,,,0.03,,2013-04-02 21:13:00,
2013-04-02 17:24:00,39.0,-99.9,-100.00,North,-999,-999.0,-999.0,-999,0.00,,,0.03,,2013-04-02 21:24:00,
2013-04-02 17:35:00,39.0,-99.9,-100.00,North,-999,-999.0,-999.0,-999,0.00,,,0.03,,2013-04-02 21:35:00,
2013-04-02 17:44:00,39.0,-99.9,-100.00,North,-999,-999.0,-999.0,-999,0.00,,,0.03,,2013-04-02 21:44:00,
2013-04-02 17:45:00,37.0,-99.9,-100.00,North,-999,-999.0,-999.0,-999,-99.99,,,0.02,,2013-04-02 21:45:00,
2013-04-02 18:05:00,37.0,-99.9,-100.00,North,-999,-999.0,-999.0,-999,-99.99,,,0.02,,2013-04-02 22:05:00,
2013-04-02 18:15:00,37.0,-99.9,-100.00,North,-999,-999.0,-999.0,-999,-99.99,,,0.02,,2013-04-02 22:15:00,
2013-04-02 18:25:00,37.0,-99.9,-100.00,North,-999,-999.0,-999.0,-999,-99.99,,,0.02,,2013-04-02 22:25:00,
2013-04-02 18:35:00,37.0,-99.9,-100.00,North,-999,-999.0,-999.0,-999,-99.99,,,0.02,,2013-04-02 22:35:00,
2013-04-02 19:13:00,33.0,-99.9,-100.00,North,-999,-999.0,-999.0,-999,0.03,,,0.05,,2013-04-02 23:13:00,
2013-04-02 19:24:00,33.0,-99.9,-100.00,North,-999,-999.0,-999.0,-999,0.03,,,0.05,,2013-04-02 23:24:00,
2013-04-02 19:43:00,33.0,-99.9,-100.00,North,-999,-999.0,-999.0,-999,0.03,,,0.05,,2013-04-02 23:43:00,
2013-04-02 19:45:00,31.0,-99.9,-100.00,North,-999,-999.0,-999.0,-999,-99.99,,,0.04,,2013-04-02 23:45:00,
2013-04-02 20:27:00,31.0,-99.9,-100.00,North,-999,-999.0,-999.0,-999,-99.99,,,0.04,,2013-04-03 00:27:00,
2013-04-02 20:35:00,31.0,-99.9,-100.00,North,-999,-999.0,-999.0,-999,-99.99,,,0.04,,2013-04-03 00:35:00,
2013-04-02 21:04:00,31.0,-99.9,-100.00,North,-999,-999.0,-999.0,-999,-99.99,,,0.03,,2013-04-03 01:04:00,
2013-04-02 21:13:00,31.0,-99.9,-100.00,North,-999,-999.0,-999.0,-999,-99.99,,,0.03,,2013-04-03 01:13:00,
2013-04-02 21:23:00,31.0,-99.9,-100.00,North,-999,-999.0,-999.0,-999,-99.99,,,0.03,,2013-04-03 01:23:00,
2013-04-02 21:34:00,31.0,-99.9,-100.00,North,-999,-999.0,-999.0,-999,-99.99,,,0.03,,2013-04-03 01:34:00,
2013-04-02 21:43:00,31.0,-99.9,-100.00,North,-999,-999.0,-999.0,-999,-99.99,,,0.03,,2013-04-03 01:43:00,
2013-04-02 21:45:00,31.0,-99.9,-100.00,North,-999,-999.0,-999.0,-999,0.00,,,0.03,,2013-04-03 01:45:00,
2013-04-02 22:05:00,31.0,-99.9,-100.00,North,-999,-999.0,-999.0,-999,0.00,,,0.03,,2013-04-03 02:05:00,
2013-04-02 22:14:00,31.0,-99.9,-100.00,North,-999,-999.0,-999.0,-999,0.00,,,0.03,,2013-04-03 02:14:00,
2013-04-02 22:25:00,31.0,-99.9,-100.00,North,-999,-999.0,-999.0,-999,0.00,,,0.03,,2013-04-03 02:25:00,
2013-04-02 22:35:00,31.0,-99.9,-100.00,North,-999,-999.0,-999.0,-999,0.00,,,0.03,,2013-04-03 02:35:00,
2013-04-02 23:08:00,31.0,-99.9,-100.00,North,-999,-999.0,-999.0,-999,0.00,,,0.03,,2013-04-03 03:08:00,
2013-04-02 23:14:00,31.0,-99.9,-100.00,North,-999,-999.0,-999.0,-999,0.00,,,0.03,,2013-04-03 03:14:00,
2013-04-02 23:23:00,31.0,-99.9,-100.00,North,-999,-999.0,-999.0,-999,0.00,,,0.03,,2013-04-03 03:23:00,
2013-04-02 23:38:00,31.0,-99.9,-100.00,North,-999,-999.0,-999.0,-999,0.00,,,0.03,,2013-04-03 03:38:00,
2013-04-02 23:44:00,31.0,-99.9,-100.00,North,-999,-999.0,-999.0,-999,0.00,,,0.03,,2013-04-03 03:44:00,